Location: Newark
(43.6583°N, 1.6617°E)
Time: 12:27:34
(UTC+00:00)

Transit 4A - Pass Details

Date: 03 September 2019
Orbit: 867 x 978 km, 66.8° (Epoch: 22 October)

Event Time Altitude Azimuth Distance (km) Brightness Sun altitude
Rises 14:23:24 0° 184° (S) 3,654 11.4 41.2°
Reaches altitude 10° 14:26:06 10° 177° (S) 2,716 10.8 40.8°
Maximum altitude 14:31:55 39° 111° (ESE) 1,436 9.0 39.9°
Drops below altitude 10° 14:37:44 10° 45° (NE) 2,721 10.0 39.0°
Sets 14:40:26 0° 38° (NE) 3,662 10.6 38.6°
